Weather History for KERI - May, 2014

Change the Weather History Date:

Sunday, May 4, 2014

  Actual Average Record
Temperature  
Mean Temperature 48 °F 54 °F  
Max Temperature 53 °F 63 °F 84 °F (1902)
Min Temperature 42 °F 44 °F 30 °F (1926)
Degree Days  
Heating Degree Days 17 12  
Month to date heating degree days 57 50  
Since 1 July heating degree days 6547 5869  
Cooling Degree Days 0 0  
Month to date cooling degree days 0 0  
Year to date cooling degree days 0 7  
Moisture  
Dew Point 37 °F    
Average Humidity 67    
Maximum Humidity 83    
Minimum Humidity 50    
Precipitation  
Precipitation 0.08 in 0.11 in 1.86 in (1990)
Month to date precipitation 0.20 0.42  
Year to date precipitation 13.10 12.04  
Snow  
Snow 0.00 in 0.00 in - ()
Month to date snowfall 0.0 0.0  
Since 1 July snowfall 138.4 100.9  
Snow Depth 0.00 in    
Sea Level Pressure  
Sea Level Pressure 29.91 in    
Wind  
Wind Speed 7 mph (WSW)    
Max Wind Speed 17 mph    
Max Gust Speed 23 mph    
Visibility 10 miles    
Events Rain    
T = Trace of Precipitation, MM = Missing Value Source: NWS Daily Summary

Daily Weather History Graph

Daily Weather History Graph

Search for Another Location

Airport or City:

Trip Planner

Search our weather history database for the weather conditions in past years. The results will help you decide how hot, cold, wet, or windy it might be!

Date:

Astronomy

May. 04, 2014 Rise Set
Actual Time 6:12 AM EDT 8:23 PM EDT
Civil Twilight 5:41 AM EDT 8:53 PM EDT
Nautical Twilight 5:04 AM EDT 9:31 PM EDT
Astronomical Twilight 4:22 AM EDT 10:13 PM EDT
Moon 10:34 AM EDT (5/4) 12:27 AM EDT (5/4)
Length of Visible Light 15h 12m
Length of Day
14h 10m
Waxing Crescent, 27% of the Moon is Illuminated
May 4
Waxing Crescent
May 6
First Quarter
May 14
Full
May 21
Last Quarter
May 28
New

Hourly Weather History & Observations

Time (EDT) Temp. Windchill Dew Point Humidity Pressure Visibility Wind Dir Wind Speed Gust Speed Precip Events Conditions
12:51 AM 43.0 °F 39.5 °F 37.9 °F 82% 29.83 in 10.0 mi SSW 5.8 mph - N/A   Clear
1:51 AM 44.1 °F 41.5 °F 39.0 °F 82% 29.82 in 10.0 mi SSW 4.6 mph - N/A   Partly Cloudy
2:51 AM 46.9 °F - 37.9 °F 71% 29.82 in 10.0 mi SW 3.5 mph - N/A   Overcast
3:51 AM 46.9 °F - 37.9 °F 71% 29.83 in 10.0 mi West 5.8 mph - N/A   Overcast
4:51 AM 46.0 °F 43.9 °F 37.0 °F 71% 29.83 in 10.0 mi West 4.6 mph - N/A   Overcast
5:51 AM 45.0 °F - 35.1 °F 68% 29.84 in 10.0 mi Calm Calm - N/A   Overcast
6:51 AM 45.0 °F - 35.1 °F 68% 29.84 in 10.0 mi Calm Calm - N/A   Overcast
7:51 AM 45.0 °F - 36.0 °F 71% 29.87 in 10.0 mi Calm Calm - 0.00 in Rain Light Rain
8:51 AM 44.1 °F 42.5 °F 36.0 °F 73% 29.89 in 8.0 mi Variable 3.5 mph - 0.01 in Rain Light Rain
9:51 AM 45.0 °F 39.3 °F 37.9 °F 76% 29.87 in 10.0 mi SSW 11.5 mph - 0.01 in   Overcast
10:51 AM 46.0 °F 40.6 °F 37.9 °F 73% 29.86 in 10.0 mi SSW 11.5 mph - 0.00 in   Overcast
11:51 AM 50.0 °F - 35.1 °F 57% 29.87 in 10.0 mi West 11.5 mph 18.4 mph N/A   Overcast
12:51 PM 52.0 °F - 34.0 °F 50% 29.88 in 10.0 mi WSW 10.4 mph - N/A   Partly Cloudy
1:51 PM 51.1 °F - 33.1 °F 50% 29.88 in 10.0 mi Variable 4.6 mph - N/A   Mostly Cloudy
2:51 PM 48.9 °F - 36.0 °F 61% 29.91 in 10.0 mi West 9.2 mph - N/A   Overcast
3:51 PM 45.0 °F 40.1 °F 39.0 °F 80% 29.93 in 6.0 mi West 9.2 mph - 0.02 in Rain Rain
4:51 PM 45.0 °F 41.2 °F 39.9 °F 82% 29.95 in 10.0 mi SW 6.9 mph - 0.04 in   Overcast
5:51 PM 46.9 °F - 39.0 °F 74% 29.97 in 10.0 mi West 10.4 mph 16.1 mph 0.00 in   Overcast
6:51 PM 46.9 °F - 39.0 °F 74% 29.98 in 10.0 mi West 9.2 mph - N/A   Overcast
7:51 PM 46.0 °F 41.9 °F 36.0 °F 68% 30.00 in 10.0 mi WNW 8.1 mph - N/A   Clear
8:51 PM 45.0 °F 40.1 °F 36.0 °F 71% 30.02 in 10.0 mi WNW 9.2 mph - N/A   Clear
9:51 PM 44.1 °F 39.0 °F 35.1 °F 71% 30.05 in 10.0 mi WNW 9.2 mph - N/A   Clear
10:51 PM 44.1 °F 41.5 °F 35.1 °F 71% 30.07 in 10.0 mi WNW 4.6 mph - N/A   Clear
11:51 PM 43.0 °F 40.3 °F 35.1 °F 74% 30.07 in 10.0 mi West 4.6 mph - N/A   Clear